sat.trackr.live / text

‹ back to catalog

STARLINK-1513

NORAD 45786 · 2020-038BJ

PAYLOAD ACTIVE UNKNOWN

§ Identity

Operator
Country
US
Launch date
2020-06-13
Launch site
AFETR
Launch vehicle
Mass (kg)
RCS (m²)

Purposes: comms

External: N2YO · Heavens-Above · Gunter

§ Orbital elements

Epoch: 2026-09-19T18:18:55.081728Z

Period
93.76 min
Inclination
53.1586°
Eccentricity
0.0002660
Mean motion
15.35869888 rev/d
Perigee alt
456.5 km
Apogee alt
460.2 km
Semi-major
6,836.5 km
B*
8.8233e-4
RAAN
7.0987°
Arg perigee
333.0984°
Mean anomaly
26.9881°
Rev number
34,659

§ Raw data

STARLINK-15131 45786U 20038BJ  26262.76313752  .00030991  00000+0  88233-3 0  99932 45786  53.1586   7.0987 0002660 333.0984  26.9881 15.35869888346597

JSON: /api/v1/satellites/45786 · /tle

For live sub-satellite position, see the globe view (requires WebGL).

§ Visibility from observer

Set your observer location to see the next 7 days of passes ≥ 10°. The values pass through the URL so the page stays shareable.

No JS? Fill the form by hand. The geolocation button needs JavaScript.